N4YHC Weather Reports


time (UTC)temp
C
wind
direction
speed
KPH
gust
KPH
rain 1hr
cm
rain 24hr
cm
rain mn
cm
humidity
%
barometer
mb
20260503212446 16 266 4.8 14.5 0.00 0.00 0.00 44 1014.0
20260503211454 16 218 9.7 12.9 0.00 0.00 0.00 42 1014.0
20260503210926 17 232 6.4 12.9 0.00 0.00 0.00 38 1014.1
20260503210500 16 199 3.2 16.1 0.00 0.00 0.00 40 1014.2
20260503205909 17 222 12.9 16.1 0.00 0.00 0.00 40 1014.3
20260503205443 17 189 4.8 16.1 0.00 0.00 0.00 41 1014.2
20260503204438 16 236 11.3 12.9 0.00 0.00 0.00 39 1014.3
20260503203911 16 262 6.4 12.9 0.00 0.00 0.00 40 1014.3
20260503203444 16 258 9.7 12.9 0.00 0.00 0.00 39 1014.4
20260503202917 16 210 9.7 17.7 0.00 0.00 0.00 42 1014.3
20260503202451 16 257 9.7 17.7 0.00 0.00 0.00 39 1014.4
20260503201923 16 241 11.3 20.9 0.00 0.00 0.00 41 1014.5
20260503201457 16 169 12.9 20.9 0.00 0.00 0.00 40 1014.6
20260503200913 16 242 9.7 14.5 0.00 0.00 0.00 39 1014.8
20260503200446 16 224 3.2 19.3 0.00 0.00 0.00 43 1014.7
20260503195915 16 245 14.5 19.3 0.00 0.00 0.00 40 1014.8
20260503195449 16 261 1.6 22.5 0.00 0.00 0.00 44 1014.8
20260503193428 16 215 8.0 20.9 0.00 0.00 0.00 42 1015.3
20260503192000 16 254 6.4 20.9 0.00 0.00 0.00 46 1015.7
20260503190948 16 220 11.3 25.7 0.00 0.00 0.00 40 1015.9
20260503190421 16 248 12.9 25.7 0.00 0.00 0.00 39 1016.0
20260503185932 16 224 11.3 20.9 0.00 0.00 0.00 39 1015.9
20260503185506 16 220 6.4 20.9 0.00 0.00 0.00 44 1016.0
20260503184923 16 248 11.3 20.9 0.00 0.00 0.00 42 1015.9
20260503184457 16 212 4.8 14.5 0.00 0.00 0.00 50 1016.0
20260503183930 16 174 9.7 19.3 0.00 0.00 0.00 42 1016.2
20260503183504 16 230 11.3 19.3 0.00 0.00 0.00 42 1016.3
20260503181928 15 249 8.0 19.3 0.00 0.00 0.00 39 1016.3
20260503181503 15 199 8.0 19.3 0.00 0.00 0.00 41 1016.5
20260503180919 15 251 6.4 17.7 0.00 0.00 0.00 45 1016.5
20260503180452 15 108 4.8 17.7 0.00 0.00 0.00 42 1016.5
20260503180004 15 242 14.5 22.5 0.00 0.00 0.00 42 1016.6
20260503175437 15 249 17.7 22.5 0.00 0.00 0.00 41 1016.6
20260503174910 15 243 9.7 17.7 0.00 0.00 0.00 41 1016.8
20260503173920 15 235 8.0 22.5 0.00 0.00 0.00 40 1017.0
20260503173454 15 208 14.5 22.5 0.00 0.00 0.00 44 1017.0
20260503172911 15 217 9.7 12.9 0.00 0.00 0.00 42 1017.1
20260503171437 15 205 14.5 17.7 0.00 0.00 0.00 42 1017.5
20260503150951 12 240 6.4 9.7 0.00 0.00 0.00 54 1018.9
20260503150424 11 241 4.8 14.5 0.00 0.00 0.00 59 1018.8
20260503130910 5 212 6.4 9.7 0.00 0.00 0.00 79 1019.2
20260503110425 1 341 0.0 0.0 0.00 0.00 0.00 92 1018.3
20260503090451 1 341 0.0 0.0 0.00 0.00 0.00 92 1017.6
20260503081432 1 341 0.0 0.0 0.00 0.00 0.00 91 1017.5
20260503081004 1 341 0.0 0.0 0.00 0.00 0.00 91 1017.4
20260503072427 1 341 0.0 0.0 0.00 0.00 0.00 89 1017.3
20260503072001 1 341 0.0 0.0 0.00 0.00 0.00 89 1017.3
20260503071417 1 341 0.0 0.0 0.00 0.00 0.00 89 1017.2
20260503070952 1 341 0.0 0.0 0.00 0.00 0.00 89 1017.3
20260503070425 1 341 0.0 0.0 0.00 0.00 0.00 88 1017.3
20260503054426 2 341 0.0 0.0 0.00 0.00 0.00 92 1017.6
20260503053914 2 341 0.0 0.0 0.00 0.00 0.00 87 1017.6
20260503053423 2 341 0.0 0.0 0.00 0.00 0.00 87 1017.7
20260503052911 2 341 0.0 0.0 0.00 0.00 0.00 86 1017.7
20260503052419 2 341 0.0 0.0 0.00 0.00 0.00 86 1017.8
20260503051907 2 341 0.0 0.0 0.00 0.00 0.00 86 1017.8
20260503051414 2 341 0.0 0.0 0.00 0.00 0.00 86 1017.7
20260503050922 2 341 0.0 0.0 0.00 0.00 0.00 85 1017.7
20260503050410 2 341 0.0 0.0 0.00 0.00 0.00 85 1017.7
20260503045919 2 341 0.0 0.0 0.00 0.00 0.00 84 1017.8
20260503045407 2 341 0.0 0.0 0.00 0.00 0.00 84 1017.9
20260503044915 2 341 0.0 0.0 0.00 0.00 0.00 83 1017.7
20260503044423 2 341 0.0 0.0 0.00 0.00 0.00 83 1017.8
20260503043420 3 341 0.0 0.0 0.00 0.00 0.00 82 1017.8
20260503042908 3 341 0.0 0.0 0.00 0.00 0.00 82 1017.8
20260503042416 3 341 0.0 0.0 0.00 0.00 0.00 81 1017.8
20260503041415 3 341 0.0 0.0 0.00 0.00 0.00 80 1017.8
20260503040418 3 341 0.0 0.0 0.00 0.00 0.00 79 1017.8
20260503035441 3 341 0.0 0.0 0.00 0.00 0.00 79 1017.9
20260503034429 3 341 0.0 0.0 0.00 0.00 0.00 78 1018.0
20260503034003 3 341 0.0 0.0 0.00 0.00 0.00 78 1018.0
20260503032437 4 341 0.0 0.0 0.00 0.00 0.00 75 1017.8
20260503031909 4 341 0.0 0.0 0.00 0.00 0.00 75 1017.8
20260503030959 5 341 0.0 0.0 0.00 0.00 0.00 72 1017.8
20260503030431 5 341 0.0 0.0 0.00 0.00 0.00 72 1017.8
20260503025941 5 341 0.0 0.0 0.00 0.00 0.00 70 1017.7
20260503024453 6 341 0.0 0.0 0.00 0.00 0.00 65 1017.7
20260503023925 6 341 0.0 0.0 0.00 0.00 0.00 63 1017.7
20260503022408 6 341 0.0 1.6 0.00 0.00 0.00 61 1017.5
20260503021941 6 341 0.0 3.2 0.00 0.00 0.00 61 1017.5
20260503020453 7 341 1.6 4.8 0.00 0.00 0.00 59 1017.4
20260503015417 7 341 1.6 4.8 0.00 0.00 0.00 58 1017.2
20260503014950 7 341 1.6 4.8 0.00 0.00 0.00 58 1017.1
20260503014422 7 347 1.6 4.8 0.00 0.00 0.00 57 1017.0
20260503013955 7 347 1.6 6.4 0.00 0.00 0.00 57 1017.0
20260503013427 7 347 3.2 6.4 0.00 0.00 0.00 56 1017.0
20260503012423 7 341 1.6 4.8 0.00 0.00 0.00 55 1016.9
20260503011957 8 341 4.8 4.8 0.00 0.00 0.00 55 1016.9
20260503010946 8 343 1.6 9.7 0.00 0.00 0.00 53 1016.7
20260503010458 8 72 1.6 9.7 0.00 0.00 0.00 54 1016.7
20260503005423 8 2 3.2 4.8 0.00 0.00 0.00 54 1016.6
20260503004956 8 295 0.0 4.8 0.00 0.00 0.00 54 1016.6
20260503004412 8 318 1.6 3.2 0.00 0.00 0.00 53 1016.5
20260503003946 8 318 1.6 4.8 0.00 0.00 0.00 51 1016.5
20260503003417 8 295 1.6 4.8 0.00 0.00 0.00 51 1016.4
20260503002951 9 273 4.8 6.4 0.00 0.00 0.00 50 1016.4
20260503001414 9 320 4.8 6.4 0.00 0.00 0.00 48 1016.2
20260503000947 10 268 1.6 4.8 0.00 0.00 0.00 48 1016.2
20260502234949 10 345 1.6 12.9 0.00 0.00 0.00 47 1015.9
20260502234422 10 297 3.2 12.9 0.00 0.00 0.00 46 1015.9
20260502233955 10 293 1.6 8.0 0.00 0.00 0.00 46 1015.9
20260502233426 11 14 1.6 8.0 0.00 0.00 0.00 45 1015.8
20260502233000 11 287 4.8 11.3 0.00 0.00 0.00 44 1015.8
20260502232432 11 268 6.4 11.3 0.00 0.00 0.00 44 1015.7
20260502231428 11 24 3.2 6.4 0.00 0.00 0.00 43 1015.7
20260502231002 11 275 4.8 4.8 0.00 0.00 0.00 43 1015.7
20260502225420 12 255 6.4 12.9 0.00 0.00 0.00 41 1015.7
20260502224953 12 238 3.2 6.4 0.00 0.00 0.00 43 1015.6
20260502224000 11 282 8.0 16.1 0.00 0.00 0.00 42 1015.6
20260502223415 12 321 4.8 12.9 0.00 0.00 0.00 41 1015.7
20260502222423 12 305 6.4 9.7 0.00 0.00 0.00 40 1015.6
20260502221954 12 41 6.4 11.3 0.00 0.00 0.00 40 1015.6
20260502221001 12 196 4.8 16.1 0.00 0.00 0.00 40 1015.6
20260502220432 12 297 6.4 16.1 0.00 0.00 0.00 42 1015.4
20260502215926 12 57 4.8 14.5 0.00 0.00 0.00 39 1015.4
20260502214933 12 290 8.0 11.3 0.00 0.00 0.00 40 1015.4
20260502214505 12 38 6.4 14.5 0.00 0.00 0.00 40 1015.4
20260502213937 12 289 4.8 14.5 0.00 0.00 0.00 42 1015.4
20260502213408 12 239 9.7 11.3 0.00 0.00 0.00 40 1015.4
20260502212941 12 220 4.8 12.9 0.00 0.00 0.00 43 1015.4